[Date Prev][Date Next][Thread Prev][Thread Next] - [Date Index][Thread Index][Author Index]

2 Line ISS Keps 3-29



ISS
1 25544U 98067A   05088.07562134  .00017833  00000-0  14719-3 0  1190
2 25544 051.6464 310.8310 0005403 304.7475 191.5467 15.70402683363085
----
Via the sarex mailing list at AMSAT.ORG courtesy of AMSAT-NA.
To unsubscribe, send "unsubscribe sarex" to Majordomo@amsat.org



AMSAT Top AMSAT Home